| time (UTC) | temp C | wind direction | speed KPH | gust KPH | rain 1hr cm | rain 24hr cm | rain mn cm | humidity % | barometer mb |
| 20260506143316 | 27 | 207 | 1.6 | 6.4 | 0.00 | 0.00 | 0.00 | 34 | 987.2 |
| 20260506142333 | 28 | 216 | 1.6 | 8.0 | 0.00 | 0.00 | 0.00 | 34 | 987.1 |
| 20260506141311 | 28 | 203 | 1.6 | 6.4 | 0.00 | 0.00 | 0.00 | 34 | 987.1 |
| 20260506140310 | 28 | 200 | 3.2 | 6.4 | 0.00 | 0.00 | 0.00 | 33 | 987.2 |
| 20260506135307 | 28 | 180 | 3.2 | 11.3 | 0.00 | 0.00 | 0.00 | 33 | 987.1 |
| 20260506134306 | 28 | 176 | 6.4 | 16.1 | 0.00 | 0.00 | 0.00 | 32 | 987.2 |
| 20260506133303 | 29 | 181 | 4.8 | 14.5 | 0.00 | 0.00 | 0.00 | 31 | 987.2 |
| 20260506132301 | 30 | 177 | 6.4 | 22.5 | 0.00 | 0.00 | 0.00 | 31 | 987.2 |
| 20260506131319 | 29 | 176 | 9.7 | 24.1 | 0.00 | 0.00 | 0.00 | 31 | 987.2 |
| 20260506130327 | 29 | 180 | 6.4 | 14.5 | 0.00 | 0.00 | 0.00 | 31 | 987.1 |
| 20260506125255 | 29 | 175 | 6.4 | 17.7 | 0.00 | 0.00 | 0.00 | 32 | 987.2 |
| 20260506124253 | 29 | 183 | 4.8 | 11.3 | 0.00 | 0.00 | 0.00 | 34 | 987.1 |
| 20260506123340 | 29 | 183 | 4.8 | 11.3 | 0.00 | 0.00 | 0.00 | 34 | 987.1 |
| 20260506122249 | 28 | 184 | 3.2 | 8.0 | 0.00 | 0.00 | 0.00 | 33 | 987.1 |
| 20260506121248 | 28 | 174 | 4.8 | 17.7 | 0.00 | 0.00 | 0.00 | 34 | 987.3 |
| 20260506120245 | 28 | 178 | 6.4 | 19.3 | 0.00 | 0.00 | 0.00 | 34 | 987.3 |
| 20260506115244 | 28 | 184 | 3.2 | 9.7 | 0.00 | 0.00 | 0.00 | 34 | 987.4 |
| 20260506114241 | 27 | 170 | 4.8 | 16.1 | 0.00 | 0.00 | 0.00 | 34 | 987.6 |
| 20260506113239 | 27 | 181 | 3.2 | 6.4 | 0.00 | 0.00 | 0.00 | 35 | 987.8 |
| 20260506112238 | 27 | 168 | 4.8 | 11.3 | 0.00 | 0.00 | 0.00 | 35 | 987.8 |
| 20260506111236 | 26 | 176 | 4.8 | 14.5 | 0.00 | 0.00 | 0.00 | 36 | 988.0 |
| 20260506110233 | 26 | 174 | 4.8 | 11.3 | 0.00 | 0.00 | 0.00 | 36 | 988.0 |
| 20260506105312 | 26 | 170 | 6.4 | 17.7 | 0.00 | 0.00 | 0.00 | 36 | 988.0 |
| 20260506104228 | 26 | 167 | 4.8 | 16.1 | 0.00 | 0.00 | 0.00 | 37 | 988.0 |
| 20260506103227 | 26 | 180 | 6.4 | 14.5 | 0.00 | 0.00 | 0.00 | 37 | 988.1 |
| 20260506102225 | 25 | 169 | 4.8 | 11.3 | 0.00 | 0.00 | 0.00 | 38 | 988.1 |
| 20260506101223 | 25 | 183 | 4.8 | 8.0 | 0.00 | 0.00 | 0.00 | 39 | 988.3 |
| 20260506100222 | 25 | 173 | 4.8 | 16.1 | 0.00 | 0.00 | 0.00 | 40 | 988.5 |
| 20260506095219 | 25 | 170 | 6.4 | 16.1 | 0.00 | 0.00 | 0.00 | 40 | 988.5 |
| 20260506094217 | 24 | 174 | 4.8 | 14.5 | 0.00 | 0.00 | 0.00 | 42 | 988.5 |
| 20260506093216 | 23 | 171 | 4.8 | 12.9 | 0.00 | 0.00 | 0.00 | 44 | 988.6 |
| 20260506092213 | 23 | 171 | 1.6 | 6.4 | 0.00 | 0.00 | 0.00 | 45 | 988.8 |
| 20260506091212 | 23 | 167 | 4.8 | 11.3 | 0.00 | 0.00 | 0.00 | 46 | 989.1 |
| 20260506090230 | 22 | 178 | 3.2 | 8.0 | 0.00 | 0.00 | 0.00 | 48 | 988.8 |
| 20260506085207 | 22 | 147 | 4.8 | 9.7 | 0.00 | 0.00 | 0.00 | 51 | 988.9 |
| 20260506084206 | 21 | 103 | 3.2 | 11.3 | 0.00 | 0.00 | 0.00 | 54 | 988.8 |
| 20260506083203 | 20 | 117 | 1.6 | 6.4 | 0.00 | 0.00 | 0.00 | 56 | 988.8 |
| 20260506082222 | 20 | 117 | 1.6 | 6.4 | 0.00 | 0.00 | 0.00 | 57 | 988.9 |
| 20260506081159 | 18 | 90 | 1.6 | 6.4 | 0.00 | 0.00 | 0.00 | 62 | 989.0 |
| 20260506080158 | 18 | 135 | 1.6 | 6.4 | 0.00 | 0.00 | 0.00 | 64 | 989.2 |
| 20260506073151 | 17 | 90 | 1.6 | 6.4 | 0.00 | 0.00 | 0.00 | 71 | 989.5 |
| 20260506072149 | 16 | 90 | 1.6 | 6.4 | 0.00 | 0.00 | 0.00 | 73 | 989.5 |
| 20260506071148 | 16 | 90 | 3.2 | 6.4 | 0.00 | 0.00 | 0.00 | 74 | 989.5 |
| 20260506070205 | 15 | 69 | 4.8 | 9.7 | 0.00 | 0.00 | 0.00 | 76 | 989.4 |
| 20260506062138 | 13 | 67 | 3.2 | 6.4 | 0.00 | 0.00 | 0.00 | 82 | 989.8 |
| 20260506061135 | 13 | 80 | 3.2 | 6.4 | 0.00 | 0.00 | 0.00 | 83 | 989.8 |
| 20260506060134 | 13 | 80 | 3.2 | 6.4 | 0.00 | 0.00 | 0.00 | 83 | 989.8 |
| 20260506051124 | 12 | 90 | 1.6 | 6.4 | 0.00 | 0.00 | 0.00 | 88 | 990.1 |
| 20260506050122 | 12 | 90 | 1.6 | 4.8 | 0.00 | 0.00 | 0.00 | 88 | 990.1 |
| 20260506045120 | 12 | 90 | 1.6 | 6.4 | 0.00 | 0.00 | 0.00 | 89 | 990.0 |
| 20260506044117 | 12 | 56 | 1.6 | 6.4 | 0.00 | 0.00 | 0.00 | 88 | 989.9 |
| 20260506043115 | 12 | 69 | 3.2 | 6.4 | 0.00 | 0.00 | 0.00 | 88 | 990.0 |
| 20260506042113 | 12 | 60 | 3.2 | 8.0 | 0.00 | 0.00 | 0.00 | 88 | 989.8 |
| 20260506041111 | 12 | 50 | 3.2 | 9.7 | 0.00 | 0.00 | 0.00 | 88 | 989.9 |
| 20260506040130 | 12 | 53 | 1.6 | 6.4 | 0.00 | 0.00 | 0.00 | 88 | 989.9 |
| 20260506035107 | 12 | 43 | 3.2 | 8.0 | 0.00 | 0.00 | 0.00 | 88 | 989.8 |
| 20260506034125 | 12 | 50 | 3.2 | 6.4 | 0.00 | 0.00 | 0.00 | 88 | 989.8 |
| 20260506033144 | 12 | 51 | 4.8 | 9.7 | 0.00 | 0.00 | 0.00 | 87 | 989.7 |
| 20260506032101 | 12 | 62 | 3.2 | 6.4 | 0.00 | 0.00 | 0.00 | 87 | 989.8 |
| 20260506031059 | 12 | 41 | 3.2 | 6.4 | 0.00 | 0.00 | 0.00 | 87 | 989.8 |
| 20260506030057 | 12 | 40 | 1.6 | 6.4 | 0.00 | 0.00 | 0.00 | 87 | 989.9 |
| 20260506025055 | 12 | 40 | 1.6 | 4.8 | 0.00 | 0.00 | 0.00 | 86 | 989.9 |
| 20260506024114 | 12 | 65 | 1.6 | 6.4 | 0.00 | 0.00 | 0.00 | 86 | 989.9 |
| 20260506023051 | 12 | 62 | 1.6 | 6.4 | 0.00 | 0.00 | 0.00 | 85 | 989.9 |
| 20260506022109 | 12 | 46 | 3.2 | 6.4 | 0.00 | 0.00 | 0.00 | 84 | 989.6 |
| 20260506021048 | 12 | 32 | 1.6 | 4.8 | 0.00 | 0.00 | 0.00 | 84 | 989.5 |
| 20260506020045 | 12 | 40 | 1.6 | 6.4 | 0.00 | 0.00 | 0.00 | 84 | 989.4 |
| 20260506015044 | 12 | 42 | 1.6 | 4.8 | 0.00 | 0.00 | 0.00 | 84 | 989.5 |
| 20260506014101 | 12 | 42 | 1.6 | 6.4 | 0.00 | 0.00 | 0.00 | 84 | 989.4 |
| 20260506013039 | 13 | 59 | 1.6 | 6.4 | 0.00 | 0.00 | 0.00 | 84 | 989.4 |
| 20260506012057 | 13 | 71 | 1.6 | 6.4 | 0.00 | 0.00 | 0.00 | 83 | 989.4 |
| 20260506011035 | 13 | 52 | 3.2 | 6.4 | 0.00 | 0.00 | 0.00 | 83 | 989.4 |
| 20260506010033 | 13 | 82 | 3.2 | 8.0 | 0.00 | 0.00 | 0.00 | 83 | 989.3 |
| 20260506005031 | 13 | 67 | 1.6 | 8.0 | 0.00 | 0.00 | 0.00 | 83 | 989.3 |
| 20260506004030 | 13 | 80 | 3.2 | 6.4 | 0.00 | 0.00 | 0.00 | 82 | 989.4 |
| 20260506003027 | 13 | 70 | 1.6 | 6.4 | 0.00 | 0.00 | 0.00 | 82 | 989.3 |
| 20260506002025 | 13 | 73 | 1.6 | 6.4 | 0.00 | 0.00 | 0.00 | 82 | 989.4 |
| 20260506001024 | 13 | 56 | 1.6 | 6.4 | 0.00 | 0.00 | 0.00 | 82 | 989.4 |
| 20260506000021 | 13 | 70 | 3.2 | 8.0 | 0.00 | 0.00 | 0.00 | 81 | 989.4 |
| 20260505235019 | 13 | 90 | 1.6 | 6.4 | 0.00 | 0.00 | 0.00 | 81 | 989.4 |
| 20260505234037 | 13 | 90 | 1.6 | 4.8 | 0.00 | 0.00 | 0.00 | 80 | 989.5 |
| 20260505233015 | 14 | 65 | 1.6 | 6.4 | 0.00 | 0.00 | 0.00 | 79 | 989.4 |
| 20260505232012 | 14 | 118 | 1.6 | 6.4 | 0.00 | 0.00 | 0.00 | 79 | 989.7 |
| 20260505231012 | 14 | 67 | 3.2 | 6.4 | 0.00 | 0.00 | 0.00 | 78 | 989.6 |
| 20260505230031 | 15 | 66 | 1.6 | 6.4 | 0.00 | 0.00 | 0.00 | 77 | 989.7 |
| 20260505225027 | 15 | 60 | 1.6 | 3.2 | 0.00 | 0.00 | 0.00 | 77 | 989.6 |
| 20260505224005 | 15 | 60 | 1.6 | 6.4 | 0.00 | 0.00 | 0.00 | 76 | 989.6 |
| 20260505223003 | 15 | 60 | 1.6 | 6.4 | 0.00 | 0.00 | 0.00 | 75 | 989.6 |
| 20260505221541 | 15 | 90 | 1.6 | 6.4 | 0.00 | 0.00 | 0.00 | 74 | 989.8 |
| 20260505220458 | 16 | 54 | 1.6 | 4.8 | 0.00 | 0.00 | 0.00 | 74 | 989.6 |
| 20260505215456 | 16 | 68 | 1.6 | 4.8 | 0.00 | 0.00 | 0.00 | 73 | 989.7 |
| 20260505214454 | 16 | 63 | 1.6 | 4.8 | 0.00 | 0.00 | 0.00 | 73 | 989.7 |
| 20260505213453 | 16 | 72 | 1.6 | 4.8 | 0.00 | 0.00 | 0.00 | 72 | 989.6 |
| 20260505212450 | 16 | 78 | 3.2 | 6.4 | 0.00 | 0.00 | 0.00 | 72 | 989.7 |
| 20260505211448 | 17 | 73 | 1.6 | 4.8 | 0.00 | 0.00 | 0.00 | 71 | 989.8 |
| 20260505210445 | 17 | 90 | 1.6 | 6.4 | 0.00 | 0.00 | 0.00 | 71 | 989.7 |
| 20260505205505 | 17 | 90 | 3.2 | 9.7 | 0.00 | 0.00 | 0.00 | 71 | 989.4 |
| 20260505204442 | 17 | 90 | 3.2 | 6.4 | 0.00 | 0.00 | 0.00 | 70 | 989.5 |
| 20260505203440 | 17 | 90 | 4.8 | 12.9 | 0.00 | 0.00 | 0.00 | 70 | 989.5 |
| 20260505202438 | 17 | 90 | 3.2 | 6.4 | 0.00 | 0.00 | 0.00 | 69 | 989.6 |
| 20260505201456 | 17 | 90 | 1.6 | 6.4 | 0.00 | 0.00 | 0.00 | 69 | 989.6 |
| 20260505200436 | 18 | 130 | 1.6 | 1.6 | 0.00 | 0.00 | 0.00 | 68 | 989.5 |
| 20260505195433 | 18 | 90 | 1.6 | 3.2 | 0.00 | 0.00 | 0.00 | 67 | 989.5 |
| 20260505194430 | 18 | 90 | 3.2 | 6.4 | 0.00 | 0.00 | 0.00 | 67 | 989.7 |
| 20260505193428 | 18 | 90 | 3.2 | 8.0 | 0.00 | 0.00 | 0.00 | 66 | 989.5 |
| 20260505192427 | 18 | 90 | 1.6 | 6.4 | 0.00 | 0.00 | 0.00 | 65 | 989.7 |
| 20260505191424 | 19 | 90 | 1.6 | 6.4 | 0.00 | 0.00 | 0.00 | 65 | 989.7 |
| 20260505190423 | 19 | 90 | 1.6 | 6.4 | 0.00 | 0.00 | 0.00 | 65 | 989.6 |
| 20260505185421 | 19 | 90 | 6.4 | 11.3 | 0.00 | 0.00 | 0.00 | 64 | 989.6 |
| 20260505184418 | 20 | 90 | 3.2 | 9.7 | 0.00 | 0.00 | 0.00 | 64 | 989.6 |
| 20260505183416 | 20 | 90 | 1.6 | 6.4 | 0.00 | 0.00 | 0.00 | 63 | 989.6 |
| 20260505182416 | 20 | 82 | 4.8 | 9.7 | 0.00 | 0.00 | 0.00 | 63 | 989.5 |
| 20260505181432 | 20 | 84 | 4.8 | 11.3 | 0.00 | 0.00 | 0.00 | 62 | 989.5 |
| 20260505180413 | 20 | 79 | 4.8 | 11.3 | 0.00 | 0.00 | 0.00 | 61 | 989.5 |
| 20260505175428 | 21 | 68 | 4.8 | 11.3 | 0.00 | 0.00 | 0.00 | 60 | 989.5 |
| 20260505174427 | 21 | 67 | 6.4 | 11.3 | 0.00 | 0.00 | 0.00 | 58 | 989.4 |
| 20260505173425 | 22 | 77 | 6.4 | 12.9 | 0.00 | 0.00 | 0.00 | 56 | 989.5 |
| 20260505172401 | 22 | 64 | 6.4 | 11.3 | 0.00 | 0.00 | 0.00 | 54 | 989.5 |
| 20260505171400 | 23 | 66 | 4.8 | 11.3 | 0.00 | 0.00 | 0.00 | 52 | 989.3 |
| 20260505170418 | 23 | 60 | 6.4 | 14.5 | 0.00 | 0.00 | 0.00 | 49 | 989.3 |
| 20260505165357 | 25 | 45 | 1.6 | 6.4 | 0.00 | 0.00 | 0.00 | 43 | 989.4 |
| 20260505164354 | 25 | 331 | 1.6 | 6.4 | 0.00 | 0.00 | 0.00 | 33 | 989.3 |
| 20260505163353 | 26 | 169 | 1.6 | 1.6 | 0.00 | 0.00 | 0.00 | 31 | 989.3 |
| 20260505162350 | 26 | 177 | 1.6 | 3.2 | 0.00 | 0.00 | 0.00 | 31 | 989.2 |
| 20260505161347 | 26 | 186 | 1.6 | 3.2 | 0.00 | 0.00 | 0.00 | 30 | 989.3 |
| 20260505160346 | 27 | 180 | 1.6 | 4.8 | 0.00 | 0.00 | 0.00 | 31 | 989.3 |
| 20260505153341 | 28 | 206 | 1.6 | 4.8 | 0.00 | 0.00 | 0.00 | 30 | 989.5 |
| 20260505152339 | 28 | 182 | 1.6 | 4.8 | 0.00 | 0.00 | 0.00 | 30 | 989.3 |
| 20260505151337 | 28 | 209 | 3.2 | 6.4 | 0.00 | 0.00 | 0.00 | 31 | 989.5 |
| 20260505150414 | 28 | 180 | 1.6 | 4.8 | 0.00 | 0.00 | 0.00 | 32 | 989.6 |